Location: Cardiff
(53.7833°N, 113.6000°W)
Time: 12:59:17
(UTC+00:00)

AO-109 - Visible Passes

Search period start: 08 December 2023 00:00
Search period end: 18 December 2023 00:00
Orbit: 387 x 420 km, 60.7° (Epoch: 07 December)

Date Brightness Start Highest point End Pass type
(mag) Time Alt. Az. Time Alt. Az. Time Alt. Az.
08 Dec ? 12:18:40 14° ENE 12:18:40 14° ENE 12:19:14 10° ENE visible
08 Dec ? 13:51:21 29° NW 13:51:55 31° NNW 13:54:50 10° NE visible
09 Dec ? 13:01:16 26° NNE 13:01:16 26° NNE 13:02:58 10° NE visible
09 Dec ? 14:33:55 13° NW 14:36:05 23° N 14:38:45 10° NE visible
10 Dec ? 13:43:42 25° NNW 13:43:52 26° N 13:46:37 10° NE visible
11 Dec ? 12:53:21 18° NE 12:53:21 18° NE 12:54:31 10° NE visible
11 Dec ? 14:25:59 14° NW 14:27:53 23° N 14:30:33 10° ENE visible
12 Dec ? 13:35:32 23° N 13:35:32 23° N 13:38:08 10° NE visible
13 Dec ? 12:44:57 15° NE 12:44:57 15° NE 12:45:46 10° NE visible
13 Dec ? 14:17:34 16° NW 14:19:18 25° N 14:22:04 10° ENE visible
14 Dec ? 13:26:54 23° N 13:26:54 23° N 13:29:23 10° ENE visible
14 Dec ? 14:59:52 10° NW 15:02:56 41° NNE 15:06:01 10° E visible
15 Dec ? 12:36:08 13° NE 12:36:08 13° NE 12:36:43 10° NE visible
15 Dec ? 14:08:45 19° NNW 14:10:20 30° NNE 14:13:14 10° E visible
16 Dec ? 13:17:54 24° NNE 13:17:54 24° NNE 13:20:21 10° ENE visible
16 Dec ? 14:50:30 10° NW 14:53:39 63° NNE 14:56:51 10° ESE visible
17 Dec ? 12:26:58 12° NE 12:26:58 12° NE 12:27:25 10° ENE visible
17 Dec ? 13:59:35 25° NNW 14:00:58 40° NNE 14:04:01 10° E visible
